Warning: fopen(/var/www/metroair/shared/private/wxdata/TAF/AVWX/taf_KOKC): failed to open stream: Permission denied in /var/www/metroair/shared/private/library/orig_library/lib_airport.php on line 533

Warning: fwrite() expects parameter 1 to be resource, boolean given in /var/www/metroair/shared/private/library/orig_library/lib_airport.php on line 534

Warning: fclose() expects parameter 1 to be resource, boolean given in /var/www/metroair/shared/private/library/orig_library/lib_airport.php on line 535

MET3421 - Oklahoma City to Kansas City

Bombardier Dash-8-Q400
857AG
1 hr 00 mins
272 nm
Scheduled - Daily

Bid/PiRep Status

Bid was submitted on Nov 01 2016.

PiRep # 73876: Approved by Dave Nichols on November 2nd, 2016 4:08 UTC

Departure

Departing from
Oklahoma City (OKC)
Departure gate
8
Scheduled Departure
GMT 1335
Local 0735
METAR KOKC 260452Z 15008KT 10SM FEW250 01/M07 A3003 RMK AO2 SLP176 T00061072
TAF KOKC 252327Z 2600/2624 16008KT P6SM SCT200 FM261500 17013G20KT P6SM OVC070
  • No charts available

Arrival

Arriving at
Kansas City (MCI)
Arrival gate
Scheduled Arrival
GMT 1435
Local 0835
METAR KMCI 260453Z 18009KT 10SM CLR M02/M11 A3000 RMK AO2 SLP169 T10221106
TAF KMCI 252320Z 2600/2624 20009KT P6SM SCT200 FM261500 22010KT P6SM OVC070

Route Map

Planning Resources

KOKC,IRW,TUL,DOSOA,KMCI
KOKC VIA IRW IBAPE PER EMP JHAWK HOOZE RUGB NOHS KMCI
KOKC ICT UTEKE KMCI
LOKC DCT CNU STAR KMCI
KOKC-PER-EMP-TOP-KMCI
Route:
OFP Layout:
Units:
Detailed Navlog:
ETOPS Planning:
Plan Stepclimbs:
Runway Analysis:
Include NOTAMS:
FIR NOTAMS:
Flight Maps:

Return Flights

MET2281
Bombardier Dash-8-Q200
1500 GMT
MET2285
Bombardier Dash-8-Q200
2140 GMT
MET3420
Bombardier Dash-8-Q400
0225 GMT
MET3422
Bombardier Dash-8-Q400
1905 GMT

Popularity

Hub Current Bids PiReps this month Total PiReps
KMCI 0 0 87
KLAX 0 1 1
KBOS 0 0 0